Location: Kaiser
(34.0939°N, 117.4889°W)
Time: 21:01:56
(UTC+00:00)

Cosmos 2369 - Pass Details

Date: 29 October 2020
Orbit: 840 x 854 km, 71.0° (Epoch: 26 November)

Event Time Altitude Azimuth Distance (km) Brightness Sun altitude
Exits shadow 12:08:21 14° 347° (NNW) 2,219 5.7 -25.2°
Maximum altitude 12:13:18 65° 68° (ENE) 921 4.0 -24.2°
Drops below altitude 10° 12:18:52 10° 150° (SSE) 2,448 6.5 -23.0°
Sets 12:21:19 0° 153° (SSE) 3,378 7.2 -22.5°
